sat.trackr.live / text

‹ back to catalog

STARLINK-35255

NORAD 65602 · 2025-207L

PAYLOAD ACTIVE UNKNOWN

§ Identity

Operator
Country
US
Launch date
2025-09-13
Launch site
AFWTR
Launch vehicle
Mass (kg)
RCS (m²)

Purposes: comms

External: N2YO · Heavens-Above · Gunter

§ Orbital elements

Epoch: 2026-05-25T03:07:47.785152Z

Period
95.64 min
Inclination
97.4538°
Eccentricity
0.0001303
Mean motion
15.05618735 rev/d
Perigee alt
548.7 km
Apogee alt
550.5 km
Semi-major
6,927.7 km
B*
-1.0132e-3
RAAN
213.6471°
Arg perigee
193.7050°
Mean anomaly
166.4142°
Rev number
3,976

§ Raw data

STARLINK-352551 65602U 25207L   26145.13041418 -.00014636  00000+0 -10132-2 0  99952 65602  97.4538 213.6471 0001303 193.7050 166.4142 15.05618735 39763

JSON: /api/v1/satellites/65602 · /tle

For live sub-satellite position, see the globe view (requires WebGL).

§ Visibility from observer

Set your observer location to see the next 7 days of passes ≥ 10°. The values pass through the URL so the page stays shareable.

No JS? Fill the form by hand. The geolocation button needs JavaScript.